Miscellaneous Local Product
Issued by NWS Hastings, NE

Current Version | Previous Version | Text Only | Print | Product List | Glossary On
Versions: 1 2 3 4 5 6 7 8 9 10 11 12 13 14 15 16 17 18 19 20 21 22 23 24 25 26 27 28 29 30 31 32 33 34 35 36 37 38 39 40 41 42 43 44 45 46 47 48 49 50
000
AXUS43 KGID 290902
MISGRI

GID CWA HOURLY WEATHER ROUNDUP
NATIONAL WEATHER SERVICE HASTINGS NE
400 AM CDT SUN MAY 29 2016

NOTE: "FAIR" INDICATES FEW OR NO CLOUDS BELOW 12,000 FEET WITH NO
SIGNIFICANT WEATHER AND/OR OBSTRUCTIONS TO VISIBILITY.

...SOUTH CENTRAL NEBRASKA...

CITY           SKY/WX    TMP DP  RH WIND       PRES   REMARKS
GRAND ISLAND   CLOUDY    58  55  90 S8        30.02S
HASTINGS       PTCLDY    58  54  86 CALM      30.02S
KEARNEY        PTCLDY    59  48  67 NW3       30.03R
ORD            PTCLDY    54  53  97 SW5       30.01R
YORK           MOCLDY    59  57  94 CALM      30.03R
AURORA         PTCLDY    60  57  88 CALM      30.01F
LEXINGTON      CLOUDY    54  51  90 N5        30.05R
HOLDREGE       CLOUDY    57  51  81 S5        30.02F
HEBRON         CLEAR     58  56  94 CALM      30.01F

...NEBRASKA PANHANDLE...

CITY           SKY/WX    TMP DP  RH WIND       PRES   REMARKS
CHADRON        PTCLDY    39  38  96 W6        30.07S WCI  35
ALLIANCE       CLEAR     39  39 100 W5        30.08S
SCOTTSBLUFF    CLEAR     47  43  86 E8        30.08S
SIDNEY         CLEAR     43  41  93 W6        30.10F

...WESTERN AND NORTH CENTRAL NEBRASKA...

CITY           SKY/WX    TMP DP  RH WIND       PRES   REMARKS
VALENTINE      CLEAR     50  47  89 SW6       30.04S
AINSWORTH      CLEAR     55  54  96 W5        30.04S
ONEILL         CLOUDY    60  57  91 SW6       30.02R
BROKEN BOW     CLEAR     53  51  93 CALM      30.03R
IMPERIAL       CLEAR     52  49  89 W7        30.09R
NORTH PLATTE   CLEAR     48  47  96 NW5       30.07R
MCCOOK         CLOUDY    58  50  75 S5        30.05R

...EASTERN NEBRASKA...

CITY           SKY/WX    TMP DP  RH WIND       PRES   REMARKS
NORFOLK        CLOUDY    53  52  96 CALM      30.00S
SO SIOUX CITY  CLEAR     56  54  93 W6        29.99R
TEKAMAH        CLEAR     55  52  89 W7        29.99R
COLUMBUS       CLEAR     54  46  76 CALM      30.02S
ALBION         PTCLDY    55  51  87 CALM      30.01S
OMAHA EPPLEY   CLEAR     56  53  90 SE7       30.00R
OFFUTT AFB     CLEAR     54  54 100 CALM      30.00R
MILLARD        CLEAR     56  55  95 CALM      30.00S
LINCOLN        CLEAR     59  55  87 CALM      30.02S
NEBRASKA CITY  CLEAR     60  56  88 W3        30.01S
BEATRICE       CLEAR     59  56  91 CALM      30.01F
FALLS CITY     CLEAR     62  58  86 W5        30.00F

...NORTHERN KANSAS...

CITY           SKY/WX    TMP DP  RH WIND       PRES   REMARKS
GOODLAND       CLOUDY    52  47  83 S6        30.11R
HILL CITY      CLEAR     55  52  89 SW5       30.07F
NORTON         SUNNY     54  48  82 SW5       30.05S
PHILLIPSBURG   CLEAR     57  55  94 SE3       30.04F
SMITH CENTER   CLEAR     54  52  94 CALM      30.04F
BELOIT         CLEAR     59  55  88 CALM      30.03R
HAYS           CLEAR     55  46  71 SW7       30.07R
RUSSELL        CLEAR     59  55  87 S12       30.04R
CONCORDIA      CLEAR     61  55  81 W8        30.04R
SALINA         CLEAR     59  57  93 S7        30.04R
TOPEKA           N/A     59  57  93 CALM      30.03R



USA.gov is the U.S. government's official web portal to all federal, state and local government web resources and services.